sat.trackr.live / text

‹ back to catalog

STARLINK-2517

NORAD 48309 · 2021-036AK

PAYLOAD ACTIVE UNKNOWN

§ Identity

Operator
Country
US
Launch date
2021-04-29
Launch site
AFETR
Launch vehicle
Mass (kg)
RCS (m²)

Purposes: comms

External: N2YO · Heavens-Above · Gunter

§ Orbital elements

Epoch: 2026-09-20T00:44:41.663328Z

Period
94.01 min
Inclination
53.1567°
Eccentricity
0.0001278
Mean motion
15.31697536 rev/d
Perigee alt
469.9 km
Apogee alt
471.6 km
Semi-major
6,848.9 km
B*
3.7898e-5
RAAN
264.4651°
Arg perigee
89.6389°
Mean anomaly
270.4759°
Rev number
29,799

§ Raw data

STARLINK-25171 48309U 21036AK  26263.03103777  .00000811  00000+0  37898-4 0  99912 48309  53.1567 264.4651 0001278  89.6389 270.4759 15.31697536297998

JSON: /api/v1/satellites/48309 · /tle

For live sub-satellite position, see the globe view (requires WebGL).

§ Visibility from observer

Set your observer location to see the next 7 days of passes ≥ 10°. The values pass through the URL so the page stays shareable.

No JS? Fill the form by hand. The geolocation button needs JavaScript.